SVFLIR Weather Reports


Display with metric or nautical units.
time (UTC)temp
F
wind
direction
speed
MPH
gust
MPH
rain 1hr
in
rain 24hr
in
rain mn
in
humidity
%
barometer
mb
20260510022803 89 251 9.0 14.0 0.00 0.00 0.00 100 1009.4
20260510022306 89 268 8.0 18.0 0.00 0.00 0.00 100 1009.4
20260510022024 90 255 12.0 18.0 0.00 0.00 0.00 100 1009.4
20260510021301 90 254 11.0 18.0 0.00 0.00 0.00 100 1009.4
20260510020800 90 257 11.0 17.0 0.00 0.00 0.00 100 1009.4
20260510020300 91 241 14.0 17.0 0.00 0.00 0.00 100 1009.4
20260510015759 91 239 11.0 16.0 0.00 0.00 0.00 100 1009.4
20260510015258 91 250 11.0 16.0 0.00 0.00 0.00 100 1009.4
20260510015024 92 261 11.0 18.0 0.00 0.00 0.00 100 1009.4
20260510014257 92 230 13.0 18.0 0.00 0.00 0.00 100 1009.4
20260510013757 92 240 10.0 20.0 0.00 0.00 0.00 100 1009.4
20260510013257 92 255 12.0 20.0 0.00 0.00 0.00 100 1009.4
20260510012756 92 241 13.0 18.0 0.00 0.00 0.00 100 1009.4
20260510012255 93 239 10.0 17.0 0.00 0.00 0.00 100 1009.4
20260510011754 92 258 11.0 20.0 0.00 0.00 0.00 100 1009.4
20260510011254 92 146 10.0 20.0 0.00 0.00 0.00 100 1009.4
20260510010753 93 244 11.0 20.0 0.00 0.00 0.00 100 1009.4
20260510010252 92 251 16.0 20.0 0.00 0.00 0.00 100 1009.4
20260510005753 94 262 13.0 19.0 0.00 0.00 0.00 100 1009.4
20260510005252 94 257 11.0 18.0 0.00 0.00 0.00 100 1009.4
20260510004750 94 251 12.0 17.0 0.00 0.00 0.00 100 1009.4
20260510004251 93 239 8.0 17.0 0.00 0.00 0.00 100 1009.4
20260510003750 93 289 11.0 26.0 0.00 0.00 0.00 100 1009.4
20260510003249 94 25 18.0 26.0 0.00 0.00 0.00 100 1009.4
20260510002749 94 172 8.0 19.0 0.00 0.00 0.00 100 1009.4
20260510002248 94 253 8.0 20.0 0.00 0.00 0.00 100 1009.4
20260510001747 94 174 13.0 20.0 0.00 0.00 0.00 100 1009.4
20260510001512 94 257 12.0 20.0 0.00 0.00 0.00 100 1009.4
20260510000747 94 236 11.0 20.0 0.00 0.00 0.00 100 1009.4
20260510000246 94 45 12.0 18.0 0.00 0.00 0.00 100 1009.4
20260509235745 94 234 14.0 26.0 0.00 0.00 0.00 100 1009.4
20260509235245 88 281 15.0 26.0 0.00 0.00 0.00 100 1009.4
20260509234742 90 230 17.0 22.0 0.00 0.00 0.00 100 1009.4
20260509234507 91 236 11.0 21.0 0.00 0.00 0.00 100 1009.4
20260509233740 91 261 6.0 21.0 0.00 0.00 0.00 100 1009.4
20260509233240 92 261 13.0 21.0 0.00 0.00 0.00 100 1009.4
20260509232739 92 300 9.0 22.0 0.00 0.00 0.00 100 1009.4
20260509232459 93 251 15.0 22.0 0.00 0.00 0.00 100 1009.4
20260509231739 93 234 11.0 17.0 0.00 0.00 0.00 100 1009.4
20260509231456 92 258 6.0 21.0 0.00 0.00 0.00 100 1009.4
20260509230738 93 234 10.0 21.0 0.00 0.00 0.00 100 1009.4
20260509230459 94 248 5.0 19.0 0.00 0.00 0.00 100 1009.4
20260509225736 94 272 10.0 19.0 0.00 0.00 0.00 100 1009.4
20260509225235 93 322 8.0 18.0 0.00 0.00 0.00 100 1009.4
20260509224735 94 285 13.0 18.0 0.00 0.00 0.00 100 1009.4
20260509224234 94 251 10.0 17.0 0.00 0.00 0.00 100 1009.4
20260509223734 95 246 12.0 17.0 0.00 0.00 0.00 100 1009.4
20260509223458 93 9 8.0 15.0 0.00 0.00 0.00 100 1009.4
20260509222956 94 115 11.0 17.0 0.00 0.00 0.00 100 1009.4
20260509221731 93 247 8.0 15.0 0.00 0.00 0.00 100 1009.4
20260509221231 94 286 11.0 15.0 0.00 0.00 0.00 100 1009.4
20260509220730 94 285 11.0 20.0 0.00 0.00 0.00 100 1009.4
20260509220230 94 244 14.0 20.0 0.00 0.00 0.00 100 1009.4
20260509215729 88 285 8.0 15.0 0.00 0.00 0.00 100 1009.4
20260509215228 90 232 10.0 15.0 0.00 0.00 0.00 100 1009.4
20260509214953 93 230 11.0 15.0 0.00 0.00 0.00 100 1009.4
20260509214227 92 267 8.0 15.0 0.00 0.00 0.00 100 1009.4
20260509213950 92 310 10.0 16.0 0.00 0.00 0.00 100 1009.4
20260509213226 94 265 10.0 16.0 0.00 0.00 0.00 100 1009.4
20260509212726 94 244 11.0 21.0 0.00 0.00 0.00 100 1009.4
20260509212225 92 236 14.0 21.0 0.00 0.00 0.00 100 1009.4
20260509211724 88 258 9.0 16.0 0.00 0.00 0.00 100 1009.4
20260509211223 90 4 11.0 19.0 0.00 0.00 0.00 100 1009.4
20260509210724 89 286 8.0 19.0 0.00 0.00 0.00 100 1009.4
20260509210223 89 251 12.0 18.0 0.00 0.00 0.00 100 1009.4
20260509205722 93 284 5.0 15.0 0.00 0.00 0.00 100 1009.4
20260509205221 94 244 8.0 13.0 0.00 0.00 0.00 100 1009.4
20260509204721 93 230 6.0 14.0 0.00 0.00 0.00 100 1009.4
20260509204220 93 251 11.0 15.0 0.00 0.00 0.00 100 1009.4
20260509203719 93 258 7.0 15.0 0.00 0.00 0.00 100 1009.4
20260509203218 92 264 6.0 13.0 0.00 0.00 0.00 100 1009.4
20260509202718 92 201 6.0 15.0 0.00 0.00 0.00 100 1009.4
20260509202218 85 279 10.0 16.0 0.00 0.00 0.00 100 1009.4
20260509201717 87 234 7.0 16.0 0.00 0.00 0.00 100 1009.4
20260509201217 89 303 3.0 15.0 0.00 0.00 0.00 100 1009.4
20260509200933 90 281 6.0 15.0 0.00 0.00 0.00 100 1009.4
20260509200215 89 232 9.0 15.0 0.00 0.00 0.00 100 1009.4
20260509195714 87 270 9.0 13.0 0.00 0.00 0.00 100 1009.4
20260509195214 88 275 1.0 12.0 0.00 0.00 0.00 100 1009.4
20260509194713 88 292 7.0 13.0 0.00 0.00 0.00 100 1009.4
20260509194212 89 258 8.0 13.0 0.00 0.00 0.00 100 1009.4
20260509193712 92 229 2.0 10.0 0.00 0.00 0.00 100 1009.4
20260509192711 93 253 10.0 13.0 0.00 0.00 0.00 100 1009.4
20260509192210 90 127 0.0 12.0 0.00 0.00 0.00 100 1009.4
20260509191708 92 323 5.0 11.0 0.00 0.00 0.00 100 1009.4
20260509191207 95 250 7.0 11.0 0.00 0.00 0.00 100 1009.4
20260509190706 95 268 5.0 10.0 0.00 0.00 0.00 100 1009.4
20260509190432 97 202 8.0 12.0 0.00 0.00 0.00 100 1009.4
20260509185705 94 292 0.0 12.0 0.00 0.00 0.00 100 1009.4
20260509185204 95 272 7.0 12.0 0.00 0.00 0.00 100 1009.4
20260509184935 94 306 4.0 12.0 0.00 0.00 0.00 100 1009.4
20260509184203 96 253 4.0 12.0 0.00 0.00 0.00 100 1009.4
20260509183702 95 234 6.0 12.0 0.00 0.00 0.00 100 1009.4
20260509183203 95 205 2.0 9.0 0.00 0.00 0.00 100 1009.4
20260509182702 95 239 5.0 9.0 0.00 0.00 0.00 100 1009.4
20260509182201 94 222 5.0 9.0 0.00 0.00 0.00 100 1009.4
20260509181701 94 239 2.0 9.0 0.00 0.00 0.00 100 1009.4
20260509180919 94 239 6.0 9.0 0.00 0.00 0.00 100 1009.4
20260509180159 93 246 6.0 8.0 0.00 0.00 0.00 100 1009.4
20260509175658 94 274 5.0 9.0 0.00 0.00 0.00 100 1009.4
20260509175425 93 175 3.0 9.0 0.00 0.00 0.00 100 1009.4
20260509174655 92 236 6.0 9.0 0.00 0.00 0.00 100 1009.4
20260509174154 92 264 4.0 11.0 0.00 0.00 0.00 100 1009.4
20260509173653 92 253 4.0 11.0 0.00 0.00 0.00 100 1009.4
20260509173153 92 292 5.0 10.0 0.00 0.00 0.00 100 1009.4
20260509172652 90 104 2.0 3.0 0.00 0.00 0.00 100 1009.4
20260509172137 89 323 0.0 6.0 0.00 0.00 0.00 100 1009.4
20260509171636 89 222 1.0 7.0 0.00 0.00 0.00 100 1009.4
20260509171136 88 232 0.0 9.0 0.00 0.00 0.00 100 1009.4
20260509170623 89 216 6.0 10.0 0.00 0.00 0.00 100 1009.4
20260509170123 88 319 5.0 10.0 0.00 0.00 0.00 100 1009.4
20260509165622 89 264 3.0 7.0 0.00 0.00 0.00 100 1009.4
20260509165121 90 285 3.0 6.0 0.00 0.00 0.00 100 1009.4
20260509164112 87 194 4.0 9.0 0.00 0.00 0.00 100 1009.4
20260509163611 87 258 1.0 9.0 0.00 0.00 0.00 100 1009.4
20260509163111 87 262 5.0 8.0 0.00 0.00 0.00 100 1009.4
20260509162833 87 230 4.0 8.0 0.00 0.00 0.00 100 1009.4
20260509162111 86 257 3.0 9.0 0.00 0.00 0.00 100 1009.4
20260509161609 85 253 3.0 9.0 0.00 0.00 0.00 100 1009.4
20260509161333 85 216 4.0 9.0 0.00 0.00 0.00 100 1009.4
20260509160826 85 225 3.0 9.0 0.00 0.00 0.00 100 1009.4
20260509160107 84 219 5.0 9.0 0.00 0.00 0.00 100 1009.4
20260509155606 85 188 5.0 9.0 0.00 0.00 0.00 100 1009.4
20260509155331 83 156 4.0 9.0 0.00 0.00 0.00 100 1009.4
20260509154605 84 226 7.0 9.0 0.00 0.00 0.00 100 1009.4
20260509154104 83 223 1.0 9.0 0.00 0.00 0.00 100 1009.4
20260509153604 83 175 5.0 9.0 0.00 0.00 0.00 100 1009.4
20260509153104 83 237 4.0 8.0 0.00 0.00 0.00 100 1009.4
20260509152603 83 188 2.0 10.0 0.00 0.00 0.00 100 1009.4
20260509152319 81 171 0.0 10.0 0.00 0.00 0.00 100 1009.4
20260509151542 82 239 7.0 10.0 0.00 0.00 0.00 100 1009.4
20260509151041 82 222 2.0 9.0 0.00 0.00 0.00 100 1009.4
20260509150540 82 185 4.0 9.0 0.00 0.00 0.00 100 1009.4
20260509150040 81 247 5.0 9.0 0.00 0.00 0.00 100 1009.4
20260509145038 80 222 3.0 7.0 0.00 0.00 0.00 100 1009.4
20260509144537 80 163 3.0 8.0 0.00 0.00 0.00 100 1009.4
20260509144038 80 187 4.0 8.0 0.00 0.00 0.00 100 1009.4
20260509142535 79 185 3.0 6.0 0.00 0.00 0.00 100 1009.4
20260509142034 79 174 3.0 6.0 0.00 0.00 0.00 100 1009.4
20260509141033 78 161 4.0 6.0 0.00 0.00 0.00 100 1009.4
20260509140533 77 167 3.0 4.0 0.00 0.00 0.00 100 1009.4
20260509140032 75 123 2.0 4.0 0.00 0.00 0.00 100 1009.4
20260509135532 74 146 3.0 4.0 0.00 0.00 0.00 100 1009.4
20260509135030 70 132 2.0 3.0 0.00 0.00 0.00 100 1009.4
20260509134522 68 127 0.0 0.0 0.00 0.00 0.00 100 1009.4
20260509134019 65 127 0.0 0.0 0.00 0.00 0.00 100 1009.4
20260509133500 65 127 0.0 0.0 0.00 0.00 0.00 100 1009.4
20260509132947 64 127 0.0 0.0 0.00 0.00 0.00 100 1009.4
20260509132711 64 127 0.0 0.0 0.00 0.00 0.00 100 1009.4
20260509131940 63 127 0.0 0.0 0.00 0.00 0.00 100 1009.4
20260509131439 62 127 0.0 0.0 0.00 0.00 0.00 100 1009.4
20260509131151 60 127 0.0 0.0 0.00 0.00 0.00 100 1009.4
20260509130412 61 127 0.0 0.0 0.00 0.00 0.00 100 1009.4
20260509125911 60 127 0.0 0.0 0.00 0.00 0.00 100 1009.4
20260509125353 60 127 0.0 0.0 0.00 0.00 0.00 100 1009.4
20260509124832 61 127 0.0 0.0 0.00 0.00 0.00 100 1009.4
20260509124327 61 127 0.0 0.0 0.00 0.00 0.00 100 1009.4
20260509123825 58 127 0.0 1.0 0.00 0.00 0.00 100 1009.4
20260509123322 58 127 0.0 1.0 0.00 0.00 0.00 100 1009.4
20260509122821 60 127 0.0 1.0 0.00 0.00 0.00 100 1009.4
20260509122318 61 127 0.0 0.0 0.00 0.00 0.00 100 1009.4
20260509122023 60 127 0.0 0.0 0.00 0.00 0.00 100 1009.4
20260509121524 59 127 0.0 0.0 0.00 0.00 0.00 100 1009.4
20260509121022 59 127 0.0 0.0 0.00 0.00 0.00 100 1009.4
20260509120250 59 127 0.0 0.0 0.00 0.00 0.00 100 1009.4
20260509115749 59 127 0.0 0.0 0.00 0.00 0.00 100 1009.4
20260509115248 59 127 0.0 0.0 0.00 0.00 0.00 100 1009.4
20260509115001 59 127 0.0 0.0 0.00 0.00 0.00 100 1009.4
20260509114211 59 127 0.0 2.0 0.00 0.00 0.00 100 1009.4
20260509113916 59 127 0.0 2.0 0.00 0.00 0.00 100 1009.4
20260509113417 59 172 0.0 1.0 0.00 0.00 0.00 100 1009.4
20260509112640 59 61 0.0 0.0 0.00 0.00 0.00 100 1009.4
20260509112113 59 61 0.0 0.0 0.00 0.00 0.00 100 1009.4
20260509111613 59 61 0.0 0.0 0.00 0.00 0.00 100 1009.4
20260509111324 59 61 0.0 0.0 0.00 0.00 0.00 100 1009.4
20260509110559 59 61 0.0 0.0 0.00 0.00 0.00 100 1009.4
20260509110051 59 61 0.0 0.0 0.00 0.00 0.00 100 1009.4
20260509105532 59 61 0.0 0.0 0.00 0.00 0.00 100 1009.4
20260509105028 59 61 0.0 0.0 0.00 0.00 0.00 100 1009.4
20260509104524 59 61 0.0 0.0 0.00 0.00 0.00 100 1009.4
20260509104024 60 61 0.0 0.0 0.00 0.00 0.00 100 1009.4
20260509103745 60 61 0.0 0.0 0.00 0.00 0.00 100 1009.4
20260509102955 60 61 0.0 0.0 0.00 0.00 0.00 100 1009.4
20260509102454 60 61 0.0 0.0 0.00 0.00 0.00 100 1009.4
20260509101943 60 61 0.0 0.0 0.00 0.00 0.00 100 1009.4
20260509101433 61 61 0.0 0.0 0.00 0.00 0.00 100 1009.4
20260509100927 61 61 0.0 0.0 0.00 0.00 0.00 100 1009.4
20260509100408 62 61 0.0 0.0 0.00 0.00 0.00 100 1009.4
20260509095840 62 61 0.0 0.0 0.00 0.00 0.00 100 1009.4
20260509095314 62 61 0.0 0.0 0.00 0.00 0.00 100 1009.4
20260509095006 62 61 0.0 0.0 0.00 0.00 0.00 100 1009.4
20260509094220 62 61 0.0 0.0 0.00 0.00 0.00 100 1009.4
20260509093923 63 61 0.0 0.0 0.00 0.00 0.00 100 1009.4
20260509093422 64 61 0.0 0.0 0.00 0.00 0.00 100 1009.4
20260509092646 64 61 0.0 0.0 0.00 0.00 0.00 100 1009.4
20260509092118 64 61 0.0 0.0 0.00 0.00 0.00 100 1009.4
20260509091818 64 61 0.0 0.0 0.00 0.00 0.00 100 1009.4
20260509091044 64 61 0.0 0.0 0.00 0.00 0.00 100 1009.4
20260509090534 64 61 0.0 0.0 0.00 0.00 0.00 100 1009.4
20260509090017 64 61 0.0 0.0 0.00 0.00 0.00 100 1009.4
20260509085514 65 61 0.0 0.0 0.00 0.00 0.00 100 1009.4
20260509085010 64 61 0.0 0.0 0.00 0.00 0.00 100 1009.4
20260509084509 65 61 0.0 0.0 0.00 0.00 0.00 100 1009.4
20260509084008 64 61 0.0 0.0 0.00 0.00 0.00 100 1009.4
20260509083726 65 61 0.0 0.0 0.00 0.00 0.00 100 1009.4
20260509083218 65 61 0.0 0.0 0.00 0.00 0.00 100 1009.4
20260509082428 65 61 0.0 0.0 0.00 0.00 0.00 100 1009.4
20260509081911 65 61 0.0 0.0 0.00 0.00 0.00 100 1009.4
20260509081636 65 61 0.0 0.0 0.00 0.00 0.00 100 1009.4
20260509080854 66 61 0.0 0.0 0.00 0.00 0.00 100 1009.4
20260509080349 66 61 0.0 0.0 0.00 0.00 0.00 100 1009.4
20260509075838 66 61 0.0 0.0 0.00 0.00 0.00 100 1009.4
20260509075320 67 61 0.0 2.0 0.00 0.00 0.00 100 1009.4
20260509075040 68 61 0.0 2.0 0.00 0.00 0.00 100 1009.4
20260509074539 67 61 0.0 0.0 0.00 0.00 0.00 100 1009.4
20260509073813 67 61 0.0 0.0 0.00 0.00 0.00 100 1009.4
20260509073532 67 61 0.0 0.0 0.00 0.00 0.00 100 1009.4
20260509072810 67 61 0.0 3.0 0.00 0.00 0.00 100 1009.4
20260509072306 67 61 0.0 3.0 0.00 0.00 0.00 100 1009.4
20260509071803 68 139 0.0 2.0 0.00 0.00 0.00 100 1009.4
20260509071256 69 139 0.0 1.0 0.00 0.00 0.00 100 1009.4
20260509070755 70 139 0.0 0.0 0.00 0.00 0.00 100 1009.4
20260509070243 71 139 0.0 0.0 0.00 0.00 0.00 100 1009.4
20260509065707 72 139 0.0 0.0 0.00 0.00 0.00 100 1009.4
20260509065416 73 139 0.0 0.0 0.00 0.00 0.00 100 1009.4
20260509064646 74 139 0.0 0.0 0.00 0.00 0.00 100 1009.4
20260509064141 74 139 0.0 0.0 0.00 0.00 0.00 100 1009.4
20260509063640 75 139 0.0 0.0 0.00 0.00 0.00 100 1009.4
20260509063401 76 139 0.0 0.0 0.00 0.00 0.00 100 1009.4
20260509062828 75 139 0.0 0.0 0.00 0.00 0.00 100 1009.4
20260509062040 75 139 0.0 0.0 0.00 0.00 0.00 100 1009.4
20260509061531 75 139 0.0 1.0 0.00 0.00 0.00 100 1009.4
20260509061020 76 139 0.0 1.0 0.00 0.00 0.00 100 1009.4
20260509060511 76 149 0.0 3.0 0.00 0.00 0.00 100 1009.4
20260509060009 76 149 0.0 3.0 0.00 0.00 0.00 100 1009.4
20260509055448 77 241 0.0 0.0 0.00 0.00 0.00 100 1009.4
20260509054931 78 241 0.0 0.0 0.00 0.00 0.00 100 1009.4
20260509054616 79 241 0.0 0.0 0.00 0.00 0.00 100 1009.4
20260509053843 79 241 0.0 0.0 0.00 0.00 0.00 100 1009.4
20260509053341 78 241 0.0 0.0 0.00 0.00 0.00 100 1009.4
20260509052829 79 241 0.0 0.0 0.00 0.00 0.00 100 1009.4
20260509052306 80 241 0.0 0.0 0.00 0.00 0.00 100 1009.4
20260509051736 80 241 0.0 6.0 0.00 0.00 0.00 100 1009.4
20260509051215 83 241 1.0 6.0 0.00 0.00 0.00 100 1009.4
20260509050714 83 253 3.0 6.0 0.00 0.00 0.00 100 1009.4
20260509050213 83 255 2.0 6.0 0.00 0.00 0.00 100 1009.4
20260509045713 83 262 4.0 7.0 0.00 0.00 0.00 100 1009.4
20260509045435 83 237 0.0 8.0 0.00 0.00 0.00 100 1009.4
20260509044712 85 248 5.0 9.0 0.00 0.00 0.00 100 1009.4
20260509044211 85 257 6.0 9.0 0.00 0.00 0.00 100 1009.4
20260509043711 85 264 6.0 9.0 0.00 0.00 0.00 100 1009.4
20260509043210 85 233 7.0 8.0 0.00 0.00 0.00 100 1009.4
20260509042930 85 237 7.0 8.0 0.00 0.00 0.00 100 1009.4
20260509042209 86 260 5.0 10.0 0.00 0.00 0.00 100 1009.4
20260509041708 87 237 7.0 13.0 0.00 0.00 0.00 100 1009.4
20260509041208 87 257 7.0 13.0 0.00 0.00 0.00 100 1009.4
20260509040706 88 248 8.0 14.0 0.00 0.00 0.00 100 1009.4
20260509040207 88 261 10.0 14.0 0.00 0.00 0.00 100 1009.4
20260509035706 89 241 9.0 14.0 0.00 0.00 0.00 100 1009.4
20260509035205 89 262 11.0 14.0 0.00 0.00 0.00 100 1009.4
20260509034705 88 262 10.0 13.0 0.00 0.00 0.00 100 1009.4
20260509034204 88 254 9.0 13.0 0.00 0.00 0.00 100 1009.4
20260509033703 88 271 10.0 12.0 0.00 0.00 0.00 100 1009.4
20260509033203 87 261 7.0 11.0 0.00 0.00 0.00 100 1009.4
20260509032702 88 275 7.0 13.0 0.00 0.00 0.00 100 1009.4
20260509032201 88 271 8.0 13.0 0.00 0.00 0.00 100 1009.4
20260509031700 88 271 9.0 13.0 0.00 0.00 0.00 100 1009.4
20260509031423 88 265 9.0 14.0 0.00 0.00 0.00 100 1009.4
20260509030700 88 275 8.0 14.0 0.00 0.00 0.00 100 1009.4
20260509030159 88 275 9.0 14.0 0.00 0.00 0.00 100 1009.4
20260509025658 88 271 6.0 9.0 0.00 0.00 0.00 100 1009.4
20260509025419 88 262 6.0 9.0 0.00 0.00 0.00 100 1009.4
20260509024657 89 270 8.0 9.0 0.00 0.00 0.00 100 1009.4
20260509024157 89 282 6.0 10.0 0.00 0.00 0.00 100 1009.4
20260509023656 88 270 7.0 11.0 0.00 0.00 0.00 100 1009.4